Ostrava, Czech Republic

7:02 AM CET on January 22, 2017 (GMT +0100)
Ostrava

Weather History for LKMT - June, 2014

Change the Weather History Date:

Thursday, June 26, 2014

  Actual Average Record
Temperature  
Mean Temperature 58 °F -  
Max Temperature 65 °F 74 °F - ()
Min Temperature 51 °F 53 °F - ()
Degree Days  
Heating Degree Days 7    
Growing Degree Days 8 (Base 50)    
Moisture  
Dew Point 49 °F    
Average Humidity 73    
Maximum Humidity 100    
Minimum Humidity 38    
Precipitation  
Precipitation 0.08 in 0.12 in - ()
Sea Level Pressure  
Sea Level Pressure 29.93 in    
Wind  
Wind Speed 8 mph ()    
Max Wind Speed 15 mph    
Max Gust Speed -    
Visibility 8.0 miles    
Events Rain    
T = Trace of Precipitation, MM = Missing Value Source: Averaged Metar Reports

Daily Weather History Graph

Daily Weather History Graph

Search for Another Location

Airport or City:

Trip Planner

Search our weather history database for the weather conditions in past years. The results will help you decide how hot, cold, wet, or windy it might be!

Date:

Astronomy

Jun. 26, 2014 Rise Set
Actual Time 4:41 AM CEST 8:59 PM CEST
Civil Twilight 3:57 AM CEST 9:43 PM CEST
Nautical Twilight 2:53 AM CEST 10:46 PM CEST
Astronomical Twilight 1:22 AM CEST 12:18 AM CEST
Moon 4:15 AM CEST (6/26) 7:56 PM CEST (6/26)
Length of Visible Light 17h 45m
Length of Day
16h 17m
Waning Crescent, 1% of the Moon is Illuminated
Jun 26
Waning Crescent
Jun 27
New
Jul 5
First Quarter
Jul 12
Full
Jul 19
Last Quarter

Hourly Weather History & Observations

Time (CEST) Temp. Dew Point Humidity Pressure Visibility Wind Dir Wind Speed Gust Speed Precip Events Conditions
12:00 AM 55 °F 53 °F 92% 29.79 in 7 mi WNW 8.9 mph - - Rain Light Rain
12:00 AM 55.4 °F 53.6 °F 94% 29.77 in 6.2 mi West 6.9 mph - N/A   Overcast
12:30 AM 55.4 °F 53.6 °F 94% 29.77 in 3.7 mi West 8.1 mph - N/A Rain Rain
1:00 AM 54 °F 53 °F 94% 29.79 in 6 mi West 6.7 mph - - Rain Light Rain
1:00 AM 53.6 °F 53.6 °F 100% 29.77 in 5.6 mi West 6.9 mph - N/A   Mostly Cloudy
1:30 AM 53.6 °F 53.6 °F 100% 29.77 in 6.2 mi West 6.9 mph - N/A   Mostly Cloudy
2:00 AM 54 °F 52 °F 90% 29.80 in 9 mi West 8.9 mph - -   Partly Cloudy
2:00 AM 53.6 °F 51.8 °F 94% 29.80 in 6.2 mi West 8.1 mph - N/A   Overcast
2:30 AM 53.6 °F 51.8 °F 94% 29.80 in 6.2 mi WNW 6.9 mph - N/A   Overcast
3:00 AM 54 °F 52 °F 89% 29.81 in 9 mi 4.5 mph - -   Overcast
3:00 AM 53.6 °F 51.8 °F 94% 29.80 in 6.2 mi WNW 4.6 mph - N/A   Overcast
3:30 AM 53.6 °F 51.8 °F 94% 29.80 in 6.2 mi West 5.8 mph - N/A   Mostly Cloudy
4:00 AM 53 °F 51 °F 92% 29.82 in 7 mi West 6.7 mph - - Rain Light Rain
4:13 AM 53.6 °F 51.8 °F 94% 29.80 in 3.1 mi NW 9.2 mph - N/A Rain Rain
4:30 AM 51.8 °F 50.0 °F 94% 29.83 in 3.7 mi North 15.0 mph - N/A Rain Rain
5:00 AM 52 °F 50 °F 89% 29.86 in 7 mi North 11.2 mph - - Rain Light Rain
5:00 AM 51.8 °F 50.0 °F 94% 29.83 in 6.2 mi North 12.7 mph - N/A Rain Light Rain
5:30 AM 51.8 °F 50.0 °F 94% 29.86 in 6.2 mi North 13.8 mph - N/A Rain Light Rain
6:00 AM 51 °F 49 °F 92% 29.88 in 9 mi North 13.4 mph - - Rain Light Rain
6:00 AM 51.8 °F 50.0 °F 94% 29.86 in 6.2 mi North 12.7 mph - N/A Rain Light Rain
6:14 AM 51.8 °F 50.0 °F 94% 29.86 in 6.2 mi North 11.5 mph - N/A   Overcast
6:30 AM 51.8 °F 50.0 °F 94% 29.86 in 6.2 mi North 12.7 mph - N/A   Scattered Clouds
7:00 AM 51 °F 49 °F 91% 29.91 in 9 mi North 8.9 mph - - Rain Light Rain
7:00 AM 51.8 °F 48.2 °F 88% 29.89 in 6.2 mi North 10.4 mph - N/A Rain Light Rain
7:30 AM 51.8 °F 48.2 °F 88% 29.89 in 6.2 mi North 8.1 mph - N/A   Scattered Clouds
8:00 AM 53 °F 50 °F 84% 29.93 in 9 mi North 11.2 mph - - Rain Light Rain
8:00 AM 53.6 °F 50.0 °F 88% 29.92 in 6.2 mi North 8.1 mph - N/A   Partly Cloudy
8:30 AM 55.4 °F 48.2 °F 77% 29.92 in 6.2 mi North 10.4 mph - N/A   Scattered Clouds
9:00 AM 55 °F 48 °F 70% 29.95 in 11 mi NNE 8.9 mph - -   Mostly Cloudy
9:00 AM 55.4 °F 50.0 °F 82% 29.92 in 6.2 mi NNE 10.4 mph - N/A   Mostly Cloudy
9:30 AM 55.4 °F 48.2 °F 77% 29.95 in 6.2 mi NNE 10.4 mph - N/A   Mostly Cloudy
10:00 AM 55 °F 47 °F 68% 29.96 in 9 mi North 8.9 mph - -   Overcast
10:00 AM 55.4 °F 48.2 °F 77% 29.95 in 6.2 mi North 9.2 mph - N/A   Mostly Cloudy
10:30 AM 55.4 °F 50.0 °F 82% 29.98 in 6.2 mi NNW 10.4 mph - N/A   Mostly Cloudy
11:00 AM 56 °F 51 °F 76% 29.99 in 7 mi NW 8.9 mph - - Rain Light Rain Showers
11:00 AM 55.4 °F 50.0 °F 82% 29.98 in 6.2 mi NNW 11.5 mph - N/A   Mostly Cloudy
11:30 AM 57.2 °F 50.0 °F 77% 29.98 in 6.2 mi NNW 10.4 mph - N/A   Mostly Cloudy
12:00 PM 58 °F 49 °F 64% 29.99 in 11 mi North 13.4 mph - -   Mostly Cloudy
12:00 PM 59.0 °F 51.8 °F 77% 29.98 in 6.2 mi NNW 10.4 mph - N/A   Mostly Cloudy
12:30 PM 60.8 °F 51.8 °F 72% 29.98 in 6.2 mi NNW 8.1 mph - N/A   Partly Cloudy
1:00 PM 62 °F 50 °F 55% 29.99 in 12 mi North 11.2 mph - -   Partly Cloudy
1:00 PM 60.8 °F 50.0 °F 68% 29.98 in 6.2 mi North 10.4 mph - N/A   Scattered Clouds
1:30 PM 60.8 °F 48.2 °F 63% 29.98 in 6.2 mi NNW 11.5 mph - N/A   Scattered Clouds
2:00 PM 61 °F 46 °F 46% 29.99 in 16 mi North 13.4 mph - -   Partly Cloudy
2:00 PM 62.6 °F 46.4 °F 55% 29.98 in 6.2 mi North 10.4 mph - N/A   Scattered Clouds
2:30 PM 62.6 °F 46.4 °F 55% 29.98 in 6.2 mi North 11.5 mph - N/A   Partly Cloudy
3:00 PM 64 °F 45 °F 38% 29.98 in 16 mi NNW 11.2 mph - -   Scattered Clouds
3:00 PM 64.4 °F 48.2 °F 56% 29.98 in 6.2 mi North 12.7 mph - N/A   Partly Cloudy
3:30 PM 64.4 °F 48.2 °F 56% 29.98 in 6.2 mi NNW 11.5 mph - N/A   Partly Cloudy
4:00 PM 65 °F 47 °F 41% 29.99 in 16 mi North 11.2 mph - -   Scattered Clouds
4:00 PM 64.4 °F 46.4 °F 52% 29.98 in 6.2 mi North 9.2 mph - N/A   Partly Cloudy
4:30 PM 64.4 °F 44.6 °F 49% 29.98 in 6.2 mi North 8.1 mph - N/A   Partly Cloudy
5:00 PM 64 °F 46 °F 40% 29.99 in 19 mi North 6.7 mph - -   Partly Cloudy
5:00 PM 66.2 °F 48.2 °F 52% 29.98 in 6.2 mi North 8.1 mph - N/A   Scattered Clouds
5:30 PM 62.6 °F 44.6 °F 52% 29.98 in 6.2 mi NNW 4.6 mph - N/A   Partly Cloudy
6:00 PM 64 °F 46 °F 41% 29.98 in 16 mi North 8.9 mph - -   Scattered Clouds
6:00 PM 64.4 °F 46.4 °F 52% 29.98 in 6.2 mi North 8.1 mph - N/A   Partly Cloudy
6:30 PM 62.6 °F 46.4 °F 55% 29.98 in 6.2 mi North 6.9 mph - N/A   Partly Cloudy
7:00 PM 62 °F 47 °F 48% 29.99 in 16 mi North 6.7 mph - -   Scattered Clouds
7:00 PM 62.6 °F 48.2 °F 59% 29.98 in 6.2 mi North 6.9 mph - N/A   Partly Cloudy
7:30 PM 62.6 °F 48.2 °F 59% 29.98 in 6.2 mi North 5.8 mph - N/A   Partly Cloudy
8:00 PM 61 °F 46 °F 48% 30.00 in 16 mi North 6.7 mph - -   Scattered Clouds
8:00 PM 62.6 °F 46.4 °F 55% 29.98 in 6.2 mi North 6.9 mph - N/A   Partly Cloudy
8:30 PM 59.0 °F 48.2 °F 67% 30.01 in 6.2 mi North 5.8 mph - N/A   Partly Cloudy
9:00 PM 58 °F 46 °F 55% 30.01 in 16 mi NNW 4.5 mph - -   Scattered Clouds
9:00 PM 59.0 °F 46.4 °F 63% 30.01 in - North 4.6 mph - N/A   Clear
9:30 PM 57.2 °F 46.4 °F 67% 30.01 in - NNE 4.6 mph - N/A   Clear
10:00 PM 55 °F 46 °F 62% 30.02 in 12 mi NNE 2.2 mph - -   Mostly Cloudy
10:00 PM 55.4 °F 46.4 °F 72% 30.01 in - NNE 3.5 mph - N/A   Clear
10:30 PM 53.6 °F 46.4 °F 77% 30.01 in - SSW 2.3 mph - N/A   Clear
11:00 PM 54 °F 46 °F 68% 30.03 in 12 mi South 4.5 mph - -   Partly Cloudy
11:00 PM 53.6 °F 48.2 °F 82% 30.01 in - SSW 4.6 mph - N/A   Clear
11:30 PM 53.6 °F 46.4 °F 77% 30.01 in - Variable 2.3 mph - N/A   Clear